Location: Newark
(42.5928°N, 8.7846°W)
Time: 02:07:16
(UTC+00:00)

Envisat - Visible Passes

Search period start: 09 December 2019 00:00
Search period end: 19 December 2019 00:00
Orbit: 764 x 766 km, 98.1° (Epoch: 08 December)

Date Brightness Start Highest point End Pass type
(mag) Time Alt. Az. Time Alt. Az. Time Alt. Az.
09 Dec 4.3 06:59:27 10° NNE 07:04:21 46° E 07:09:13 10° S visible
09 Dec 2.9 18:14:30 10° SSE 18:19:31 65° ENE 18:24:34 10° N visible
09 Dec 5.9 19:56:03 10° SW 19:58:59 15° W 20:01:56 10° NW visible
10 Dec 5.7 06:23:30 10° NE 06:27:19 21° E 06:31:09 10° SE visible
10 Dec 3.7 17:38:34 10° SE 17:42:57 30° ENE 17:47:22 10° N visible
10 Dec 4.7 19:17:20 10° SSW 19:21:53 33° W 19:26:28 10° NNW visible
11 Dec 3.2 18:39:55 10° S 18:44:59 74° WSW 18:50:05 10° NNW visible
12 Dec 4.7 06:48:19 10° NNE 06:53:01 36° E 06:57:41 10° SSE visible
12 Dec 3.1 18:03:23 10° SE 18:08:16 51° ENE 18:13:12 10° N visible
12 Dec 5.6 19:43:59 10° SW 19:47:35 19° W 19:51:13 10° NW visible
13 Dec 5.9 06:12:42 10° NE 06:15:56 17° E 06:19:10 10° SE visible
13 Dec 4.0 17:27:43 10° ESE 17:31:46 25° ENE 17:35:50 10° NNE visible
13 Dec 4.2 19:05:45 10° SSW 19:10:32 42° W 19:15:22 10° NNW visible
14 Dec 3.6 07:13:32 10° NNE 07:18:36 64° ESE 07:23:38 10° S visible
14 Dec 2.9 18:28:37 10° SSE 18:33:42 88° ENE 18:38:49 10° NNW visible
14 Dec 6.2 20:12:18 10° W 20:13:24 11° W 20:14:29 10° WNW visible
15 Dec 5.2 06:37:15 10° NE 06:41:40 29° E 06:46:03 10° SSE visible
15 Dec 3.4 17:52:20 10° SE 17:57:03 41° ENE 18:01:48 10° N visible
15 Dec 5.2 19:32:07 10° SSW 19:36:12 24° W 19:40:19 10° NW visible
16 Dec 6.1 06:02:10 10° ENE 06:04:32 13° E 06:06:53 10° ESE visible
16 Dec 3.8 18:54:17 10° S 18:59:13 53° W 19:04:13 10° NNW visible
17 Dec 4.1 07:02:20 10° NNE 07:07:18 50° E 07:12:13 10° S visible
17 Dec 2.9 18:17:24 10° SSE 18:22:26 71° ENE 18:27:31 10° N visible
17 Dec 6.0 19:59:23 10° WSW 20:01:58 14° W 20:04:33 10° WNW visible
18 Dec 5.5 06:26:17 10° NE 06:30:18 23° E 06:34:17 10° SE visible
18 Dec 3.6 17:41:21 10° SE 17:45:51 33° ENE 17:50:21 10° N visible
18 Dec 4.9 19:20:24 10° SSW 19:24:50 30° W 19:29:19 10° NW visible
